Time,TemperatureF,DewpointF,PressureIn,WindDirection,WindDirectionDegrees,WindSpeedMPH,WindSpeedGustMPH,Humidity,HourlyPrecipIn,Conditions,Clouds,dailyrainin,SolarRadiationWatts/m^2,SoftwareType,DateUTC
2013-03-15 00:05:00,24.2,10.0,29.82,NW,322,7.0,14.0,55,0.00,,,0.00,0,weatherlink.com 1.10,2013-03-15 04:05:00,
2013-03-15 00:20:00,24.0,10.0,29.81,WNW,301,3.0,17.0,55,0.00,,,0.00,0,weatherlink.com 1.10,2013-03-15 04:20:00,
2013-03-15 00:35:00,23.9,10.0,29.82,NW,321,9.0,15.0,55,0.00,,,0.00,0,weatherlink.com 1.10,2013-03-15 04:35:00,
2013-03-15 00:50:00,23.8,10.0,29.81,WNW,285,7.0,19.0,56,0.00,,,0.00,0,weatherlink.com 1.10,2013-03-15 04:50:00,
2013-03-15 01:05:00,23.7,10.0,29.81,NNW,339,4.0,14.0,56,0.00,,,0.00,0,weatherlink.com 1.10,2013-03-15 05:05:00,
2013-03-15 01:20:00,23.6,10.0,29.82,NW,308,10.0,16.0,56,0.00,,,0.00,0,weatherlink.com 1.10,2013-03-15 05:20:00,
2013-03-15 01:35:00,23.6,10.0,29.82,WNW,298,15.0,19.0,56,0.00,,,0.00,0,weatherlink.com 1.10,2013-03-15 05:35:00,
2013-03-15 01:51:00,23.5,9.0,29.82,NNW,330,10.0,22.0,55,0.00,,,0.00,0,weatherlink.com 1.10,2013-03-15 05:51:00,
2013-03-15 02:06:00,23.4,9.0,29.82,WNW,302,14.0,18.0,55,0.00,,,0.00,0,weatherlink.com 1.10,2013-03-15 06:06:00,
2013-03-15 02:21:00,23.5,9.0,29.83,NW,320,12.0,20.0,55,0.00,,,0.00,0,weatherlink.com 1.10,2013-03-15 06:21:00,
2013-03-15 02:36:00,23.5,9.0,29.82,WNW,299,0.0,18.0,55,0.00,,,0.00,0,weatherlink.com 1.10,2013-03-15 06:36:00,
2013-03-15 03:06:00,23.4,10.0,29.82,NNW,329,11.0,25.0,56,0.00,,,0.00,0,weatherlink.com 1.10,2013-03-15 07:06:00,
2013-03-15 04:06:00,22.5,9.0,29.82,NNW,341,8.0,20.0,57,0.00,,,0.00,0,weatherlink.com 1.10,2013-03-15 08:06:00,
2013-03-15 04:36:00,22.3,9.0,29.82,NW,323,7.0,21.0,56,0.00,,,0.00,0,weatherlink.com 1.10,2013-03-15 08:36:00,
2013-03-15 04:51:00,22.2,8.0,29.82,NW,308,8.0,23.0,55,0.00,,,0.00,0,weatherlink.com 1.10,2013-03-15 08:51:00,
2013-03-15 05:06:00,22.0,7.0,29.83,NW,321,9.0,21.0,53,0.00,,,0.00,0,weatherlink.com 1.10,2013-03-15 09:06:00,
2013-03-15 05:21:00,21.8,7.0,29.83,NNW,337,12.0,26.0,52,0.00,,,0.00,0,weatherlink.com 1.10,2013-03-15 09:21:00,
2013-03-15 05:36:00,21.6,6.0,29.83,NNW,327,6.0,18.0,52,0.00,,,0.00,0,weatherlink.com 1.10,2013-03-15 09:36:00,
2013-03-15 05:51:00,21.4,7.0,29.83,WNW,298,5.0,18.0,53,0.00,,,0.00,0,weatherlink.com 1.10,2013-03-15 09:51:00,
2013-03-15 06:06:00,21.3,6.0,29.84,NW,309,14.0,20.0,52,0.00,,,0.00,0,weatherlink.com 1.10,2013-03-15 10:06:00,
2013-03-15 06:36:00,21.2,6.0,29.85,NW,313,0.0,19.0,53,0.00,,,0.00,0,weatherlink.com 1.10,2013-03-15 10:36:00,
2013-03-15 06:51:00,21.2,6.0,29.85,WNW,296,7.0,22.0,53,0.00,,,0.00,0,weatherlink.com 1.10,2013-03-15 10:51:00,
2013-03-15 07:06:00,21.1,7.0,29.85,NW,315,9.0,16.0,54,0.00,,,0.00,11,weatherlink.com 1.10,2013-03-15 11:06:00,
2013-03-15 07:21:00,21.2,7.0,29.85,WNW,293,6.0,14.0,54,0.00,,,0.00,21,weatherlink.com 1.10,2013-03-15 11:21:00,
2013-03-15 07:36:00,21.5,7.0,29.85,West,275,6.0,14.0,54,0.00,,,0.00,26,weatherlink.com 1.10,2013-03-15 11:36:00,
2013-03-15 08:06:00,22.2,8.0,29.85,NW,308,10.0,15.0,54,0.00,,,0.00,42,weatherlink.com 1.10,2013-03-15 12:06:00,
2013-03-15 08:22:00,22.6,8.0,29.86,NW,313,8.0,15.0,53,0.00,,,0.00,49,weatherlink.com 1.10,2013-03-15 12:22:00,
2013-03-15 08:37:00,23.1,8.0,29.85,NNW,329,10.0,14.0,53,0.00,,,0.00,67,weatherlink.com 1.10,2013-03-15 12:37:00,
2013-03-15 08:52:00,23.9,8.0,29.85,NW,311,8.0,19.0,52,0.00,,,0.00,134,weatherlink.com 1.10,2013-03-15 12:52:00,
2013-03-15 09:07:00,24.4,9.0,29.85,WNW,284,10.0,18.0,52,0.00,,,0.00,93,weatherlink.com 1.10,2013-03-15 13:07:00,
2013-03-15 09:22:00,25.2,10.0,29.85,WNW,302,2.0,18.0,52,0.00,,,0.00,104,weatherlink.com 1.10,2013-03-15 13:22:00,
2013-03-15 09:37:00,26.2,10.0,29.85,WNW,299,11.0,16.0,51,0.00,,,0.00,232,weatherlink.com 1.10,2013-03-15 13:37:00,
2013-03-15 09:52:00,26.6,10.0,29.84,NW,309,4.0,17.0,49,0.00,,,0.00,220,weatherlink.com 1.10,2013-03-15 13:52:00,
2013-03-15 10:07:00,26.6,10.0,29.84,WNW,296,13.0,14.0,49,0.00,,,0.00,267,weatherlink.com 1.10,2013-03-15 14:07:00,
2013-03-15 10:22:00,27.3,10.0,29.83,WNW,302,8.0,16.0,49,0.00,,,0.00,357,weatherlink.com 1.10,2013-03-15 14:22:00,
2013-03-15 10:37:00,28.5,10.0,29.83,WNW,297,13.0,17.0,46,0.00,,,0.00,610,weatherlink.com 1.10,2013-03-15 14:37:00,
2013-03-15 10:52:00,29.4,10.0,29.82,NNW,330,3.0,12.0,45,0.00,,,0.00,543,weatherlink.com 1.10,2013-03-15 14:52:00,
2013-03-15 11:07:00,29.6,10.0,29.82,WNW,303,7.0,18.0,44,0.00,,,0.00,548,weatherlink.com 1.10,2013-03-15 15:07:00,
2013-03-15 11:22:00,30.3,10.0,29.81,NW,310,8.0,16.0,42,0.00,,,0.00,424,weatherlink.com 1.10,2013-03-15 15:22:00,
2013-03-15 11:37:00,30.6,11.0,29.81,West,273,4.0,13.0,45,0.00,,,0.00,246,weatherlink.com 1.10,2013-03-15 15:37:00,
2013-03-15 11:52:00,31.2,12.0,29.81,West,273,6.0,11.0,45,0.00,,,0.00,401,weatherlink.com 1.10,2013-03-15 15:52:00,
2013-03-15 12:07:00,32.1,11.0,29.80,WNW,287,7.0,16.0,42,0.00,,,0.00,410,weatherlink.com 1.10,2013-03-15 16:07:00,
2013-03-15 12:22:00,33.0,12.0,29.78,West,270,11.0,15.0,41,0.00,,,0.00,425,weatherlink.com 1.10,2013-03-15 16:22:00,
2013-03-15 12:37:00,34.7,12.0,29.77,WNW,287,7.0,14.0,39,0.00,,,0.00,714,weatherlink.com 1.10,2013-03-15 16:37:00,
2013-03-15 12:52:00,35.5,11.0,29.76,WNW,283,7.0,12.0,37,0.00,,,0.00,200,weatherlink.com 1.10,2013-03-15 16:52:00,
2013-03-15 13:07:00,35.8,10.0,29.75,WSW,246,12.0,16.0,35,0.00,,,0.00,253,weatherlink.com 1.10,2013-03-15 17:07:00,
2013-03-15 13:22:00,36.3,11.0,29.74,West,260,10.0,12.0,35,0.00,,,0.00,118,weatherlink.com 1.10,2013-03-15 17:22:00,
2013-03-15 13:37:00,36.9,11.0,29.73,WNW,284,5.0,15.0,34,0.00,,,0.00,165,weatherlink.com 1.10,2013-03-15 17:37:00,
2013-03-15 13:52:00,37.3,10.0,29.72,West,269,11.0,13.0,32,0.00,,,0.00,153,weatherlink.com 1.10,2013-03-15 17:52:00,
2013-03-15 14:08:00,38.4,11.0,29.71,WSW,238,10.0,12.0,33,0.00,,,0.00,192,weatherlink.com 1.10,2013-03-15 18:08:00,
2013-03-15 14:38:00,40.3,12.0,29.68,West,261,13.0,15.0,31,0.00,,,0.00,107,weatherlink.com 1.10,2013-03-15 18:38:00,
2013-03-15 14:53:00,40.2,10.0,29.68,West,272,11.0,18.0,29,0.00,,,0.00,195,weatherlink.com 1.10,2013-03-15 18:53:00,
2013-03-15 15:08:00,39.9,11.0,29.67,West,259,1.0,15.0,31,0.00,,,0.00,204,weatherlink.com 1.10,2013-03-15 19:08:00,
2013-03-15 15:23:00,40.2,12.0,29.66,WSW,247,4.0,17.0,31,0.00,,,0.00,153,weatherlink.com 1.10,2013-03-15 19:23:00,
2013-03-15 15:38:00,40.7,14.0,29.66,West,263,5.0,13.0,33,0.00,,,0.00,65,weatherlink.com 1.10,2013-03-15 19:38:00,
2013-03-15 15:53:00,41.1,14.0,29.66,West,267,7.0,14.0,33,0.00,,,0.00,44,weatherlink.com 1.10,2013-03-15 19:53:00,
2013-03-15 16:08:00,41.0,14.0,29.66,WSW,248,4.0,16.0,34,0.00,,,0.00,49,weatherlink.com 1.10,2013-03-15 20:08:00,
2013-03-15 16:23:00,40.5,16.0,29.65,WSW,254,6.0,16.0,37,0.00,,,0.00,53,weatherlink.com 1.10,2013-03-15 20:23:00,
2013-03-15 16:38:00,40.9,16.0,29.64,SW,221,11.0,15.0,37,0.00,,,0.00,46,weatherlink.com 1.10,2013-03-15 20:38:00,
2013-03-15 16:53:00,40.8,16.0,29.64,West,259,3.0,21.0,37,0.00,,,0.00,58,weatherlink.com 1.10,2013-03-15 20:53:00,
2013-03-15 17:08:00,41.0,18.0,29.63,WSW,252,4.0,19.0,39,0.00,,,0.00,46,weatherlink.com 1.10,2013-03-15 21:08:00,
2013-03-15 17:23:00,41.2,18.0,29.62,WSW,252,9.0,17.0,39,0.00,,,0.00,32,weatherlink.com 1.10,2013-03-15 21:23:00,
2013-03-15 17:38:00,40.5,18.0,29.62,West,274,6.0,20.0,40,0.00,,,0.00,25,weatherlink.com 1.10,2013-03-15 21:38:00,
2013-03-15 17:53:00,40.6,18.0,29.62,West,269,12.0,22.0,41,0.00,,,0.00,51,weatherlink.com 1.10,2013-03-15 21:53:00,
2013-03-15 18:08:00,40.9,20.0,29.61,SW,224,15.0,21.0,43,0.00,,,0.00,21,weatherlink.com 1.10,2013-03-15 22:08:00,
2013-03-15 18:23:00,40.2,24.0,29.62,West,261,12.0,28.0,53,0.00,,,0.00,14,weatherlink.com 1.10,2013-03-15 22:23:00,
2013-03-15 18:38:00,39.5,25.0,29.63,West,272,15.0,23.0,57,0.00,,,0.00,5,weatherlink.com 1.10,2013-03-15 22:38:00,
2013-03-15 19:08:00,39.3,25.0,29.64,West,277,8.0,18.0,58,0.00,,,0.00,0,weatherlink.com 1.10,2013-03-15 23:08:00,
2013-03-15 19:23:00,39.3,26.0,29.63,WSW,250,8.0,19.0,59,0.00,,,0.00,0,weatherlink.com 1.10,2013-03-15 23:23:00,
2013-03-15 19:38:00,39.3,26.0,29.63,WSW,251,7.0,16.0,59,0.00,,,0.00,0,weatherlink.com 1.10,2013-03-15 23:38:00,
2013-03-15 19:53:00,39.0,26.0,29.64,WSW,255,16.0,17.0,60,0.00,,,0.00,0,weatherlink.com 1.10,2013-03-15 23:53:00,
2013-03-15 20:23:00,38.9,26.0,29.63,West,263,5.0,22.0,61,0.00,,,0.00,0,weatherlink.com 1.10,2013-03-16 00:23:00,
2013-03-15 20:38:00,39.1,27.0,29.64,WSW,249,9.0,16.0,62,0.00,,,0.00,0,weatherlink.com 1.10,2013-03-16 00:38:00,
2013-03-15 20:53:00,38.8,27.0,29.64,West,260,3.0,18.0,63,0.00,,,0.00,0,weatherlink.com 1.10,2013-03-16 00:53:00,
2013-03-15 21:08:00,38.6,27.0,29.64,WNW,290,9.0,15.0,64,0.00,,,0.00,0,weatherlink.com 1.10,2013-03-16 01:08:00,
2013-03-15 21:23:00,38.6,27.0,29.64,SW,235,2.0,14.0,64,0.00,,,0.00,0,weatherlink.com 1.10,2013-03-16 01:23:00,
2013-03-15 21:38:00,38.3,28.0,29.64,West,275,9.0,18.0,66,0.00,,,0.00,0,weatherlink.com 1.10,2013-03-16 01:38:00,
2013-03-15 21:53:00,38.0,28.0,29.64,West,266,8.0,15.0,67,0.00,,,0.00,0,weatherlink.com 1.10,2013-03-16 01:53:00,
2013-03-15 22:08:00,37.8,28.0,29.64,West,271,15.0,21.0,67,0.00,,,0.00,0,weatherlink.com 1.10,2013-03-16 02:08:00,
2013-03-15 22:23:00,37.8,28.0,29.64,West,271,1.0,17.0,68,0.00,,,0.00,0,weatherlink.com 1.10,2013-03-16 02:23:00,
2013-03-15 22:38:00,37.5,28.0,29.64,West,268,5.0,12.0,69,0.00,,,0.00,0,weatherlink.com 1.10,2013-03-16 02:38:00,
2013-03-15 22:53:00,37.3,28.0,29.64,West,268,6.0,18.0,69,0.00,,,0.00,0,weatherlink.com 1.10,2013-03-16 02:53:00,
2013-03-15 23:08:00,37.0,28.0,29.64,West,272,10.0,15.0,70,0.00,,,0.00,0,weatherlink.com 1.10,2013-03-16 03:08:00,
2013-03-15 23:23:00,36.6,28.0,29.64,West,281,13.0,19.0,71,0.00,,,0.00,0,weatherlink.com 1.10,2013-03-16 03:23:00,
2013-03-15 23:38:00,36.5,28.0,29.64,West,269,11.0,16.0,71,0.00,,,0.00,0,weatherlink.com 1.10,2013-03-16 03:38:00,
2013-03-15 23:53:00,36.3,28.0,29.64,West,263,14.0,15.0,71,0.00,,,0.00,0,weatherlink.com 1.10,2013-03-16 03:53:00,